Location: Nairn
(57.5833°N, 3.8667°W)
Time: 22:58:38
(UTC+00:00)

Envisat - Visible Passes

Search period start: 19 October 2020 00:00
Search period end: 29 October 2020 00:00
Orbit: 764 x 766 km, 98.1° (Epoch: 19 October)

Date Brightness Start Highest point End Pass type
(mag) Time Alt. Az. Time Alt. Az. Time Alt. Az.
19 Oct 5.7 05:16:02 10° NE 05:20:02 23° E 05:24:00 10° SE visible
19 Oct 5.4 18:18:48 10° SSW 18:23:07 27° W 18:27:28 10° NNW visible
20 Oct 6.4 04:40:27 10° NE 04:42:39 13° E 04:44:51 10° ESE visible
20 Oct 3.8 06:17:44 10° NNE 06:22:47 60° ESE 06:27:49 10° S visible
20 Oct 4.2 17:41:05 10° S 17:46:00 49° W 17:50:58 10° NNW visible
21 Oct 5.0 05:41:07 10° NNE 05:45:45 34° E 05:50:20 10° SSE visible
21 Oct 6.0 18:45:22 10° SW 18:48:53 19° W 18:52:25 10° NW visible
22 Oct 5.9 05:04:53 10° NE 05:08:31 19° E 05:12:07 10° SE visible
22 Oct 5.0 18:07:05 10° SSW 18:11:38 32° W 18:16:13 10° NNW visible
23 Oct 6.6 04:30:14 10° ENE 04:31:04 10° ENE 04:31:54 10° E visible
23 Oct 4.1 06:06:23 10° NNE 06:11:22 50° E 06:16:19 10° S visible
23 Oct 3.8 17:29:35 10° S 17:34:35 58° W 17:39:38 10° NNW visible
23 Oct 6.5 19:12:45 10° WSW 19:14:45 12° W 19:16:45 10° WNW visible
24 Oct 5.3 05:29:52 10° NNE 05:34:16 28° E 05:38:38 10° SSE visible
24 Oct 5.7 18:33:27 10° SW 18:37:21 22° W 18:41:17 10° NW visible
25 Oct 6.1 04:53:49 10° NE 04:56:58 16° E 05:00:06 10° ESE visible
25 Oct 3.3 06:31:46 10° NNE 06:36:54 76° ESE 06:41:59 10° S visible
25 Oct 4.7 17:55:26 10° SSW 18:00:10 38° W 18:04:56 10° NNW visible
26 Oct 4.5 05:55:04 10° NNE 05:59:56 42° E 06:04:45 10° SSE visible
26 Oct 3.5 17:18:06 10° S 17:23:10 69° WSW 17:28:16 10° NNW visible
26 Oct 6.3 19:00:23 10° WSW 19:03:11 15° W 19:05:59 10° NW visible
27 Oct 5.5 05:18:38 10° NE 05:22:46 24° E 05:26:52 10° SE visible
27 Oct 5.4 18:21:38 10° SSW 18:25:51 26° W 18:30:06 10° NW visible
28 Oct 6.3 04:42:55 10° NE 04:45:25 14° E 04:47:54 10° ESE visible
28 Oct 3.6 06:20:25 10° NNE 06:25:30 64° ESE 06:30:33 10° S visible
28 Oct 4.3 17:43:50 10° S 17:48:43 46° W 17:53:38 10° NNW visible
